EHI
2 2 1 0 0 0 0 0 0 0 0 0 0 0 0 0 0 0 0 0 0 0 0 0 0 0 0 0 0 0 0 0 0 0 0 0 0 0 0 0 0 0 0
1 1 0 0 0 0 0 0 0 0 0 0 0 0 0 0 0 0 0 0 0 0 0 0 0 0 0 0 0 0 0 0 0 0 0 0 0 0 0 0 0 0 0
0 0 0 0 0 0 0 0 0 0 0 0 0 0 0 0 0 0 0 0 0 0 0 0 0 0 0 0 0 0 0 0 0 0 0 0 0 0 0 0 0 0 0
0 0 0 0 0 0 0 0 0 0 0 0 0 0 0 0 0 0 0 0 0 0 0 0 0 0 0 0 0 0 0 0 0 0 0 0 0 0 0 0 0 0 0
0 0 0 0 0 0 0 0 0 0 0 0 0 0 0 0 0 0 0 0 0 0 0 0 0 0 0 0 0 0 0 0 0 0 0 0 0 0 0 0 0 0 0
0 0 0 0 0 0 0 0 0 0 0 0 0 0 0 0 0 0 0 0 0 0 0 0 0 0 0 0 0 0 0 0 0 0 0 0 0 0 0 0 0 0 0
0 0 0 0 0 0 0 0 0 0 0 0 0 0 0 0 0 0 0 0 0 0 0 0 0 0 0 0 0 0 0 0 0 0 0 0 0 0 0 0 0 0 0
0 0 0 0 0 0 0 0 0 0 0 0 0 0 0 0 0 0 0 0 0 0 0 0 0 0 0 0 0 0 0 0 0 0 0 0 0 0 0 0 0 0 0
0 0 0 0 0 0 0 0 0 0 0 0 0 0 0 0 0 0 0 0 0 0 0 0 0 0 0 0 0 0 0 0 0 0 0 0 0 0 0 0 0 0 0
0 0 0 0 0 0 0 0 0 0 0 0 0 0 0 0 0 0 0 0 0 0 0 0 0 0 0 0 0 0 0 0 0 0 0 0 0 0 0 0 0 0 0
0 0 0 0 0 0 0 0 0 0 0 0 0 0 0 0 0 0 0 0 0 0 0 0 0 0 0 0 0 0 0 0 0 0 0 0 0 0 0 0 0 0 0
0 0 0 0 0 0 0 0 0 0 0 0 0 0 0 0 0 0 0 0 0 0 0 0 0 0 0 0 0 0 0 0 0 0 0 0 0 0 0 0 0 0 0
0 0 0 0 0 0 0 0 0 0 0 0 0 0 0 0 0 0 0 0 0 0 0 0 0 0 0 0 0 0 0 0 0 0 0 0 0 0 0 0 0 0 0
0 0 0 0 0 0 0 0 0 0 0 0 0 0 0 0 0 0 0 0 0 0 0 0 0 0 0 0 0 0 0 0 0 0 0 0 0 0 0 0 0 0 0
0 0 0 0 0 0 0 0 0 0 0 0 0 0 0 0 0 0 0 0 0 0 0 0 0 0 0 0 0 0 0 0 0 0 0 0 0 0 0 0 0 0 0
0 0 0 0 0 0 0 0 0 0 0 0 0 0 0 0 0 0 0 0 0 0 0 0 0 0 0 0 0 0 0 0 0 0 0 0 0 0 0 0 0 0 0
0 0 0 0 0 0 0 0 0 0 0 0 0 0 0 0 0 0 0 0 0 0 0 0 0 0 0 0 0 0 0 0 0 0 0 0 0 0 0 0 0 0 0
0 0 0 0 0 0 0 0 0 0 0 0 0 0 0 0 0 0 0 0 0 0 0 0 0 0 0 0 0 0 0 0 0 0 0 0 0 0 0 0 0 0 0
0 0 0 0 0 0 0 0 0 0 0 0 0 0 0 0 0 0 0 0 0 0 0 0 0 0 0 0 0 0 0 0 0 0 0 0 0 0 0 0 0 0 0
0 0 0 0 0 0 0 0 0 0 0 0 0 0 0 0 0 0 0 0 0 0 0 0 0 0 0 0 0 0 0 0 0 0 0 0 0 0 0 0 0 0 0
0 0 0 0 0 0 0 0 0 0 0 0 0 0 0 0 0 0 0 0 0 0 0 0 0 0 0 0 0 0 0 0 0 0 0 0 0 0 0 0 0 0 0
0 0 0 0 0 0 0 0 0 0 0 0 0 0 0 0 0 0 0 0 0 0 0 0 0 0 0 0 0 0 0 0 0 0 0 0 0 0 0 0 0 0 0
0 0 0 0 0 0 0 0 0 0 0 0 0 0 0 0 0 0 0 0 0 0 0 0 0 0 0 0 0 0 0 0 0 0 0 0 0 0 0 0 0 0 0
0 0 0 0 0 0 0 0 0 0 0 0 0 0 0 0 0 0 0 0 0 0 0 0 0 0 0 0 0 0 0 0 0 0 0 0 0 0 0 0 0 0 0
0 0 0 0 0 0 0 0 0 0 0 0 0 0 0 0 0 0 0 0 0 0 0 0 0 0 0 0 0 0 0 0 0 0 0 0 0 0 0 0 0 0 0
0 0 0 0 0 0 0 0 0 0 0 0 0 0 0 0 0 0 0 0 0 0 0 0 0 0 0 0 0 0 0 0 0 0 0 0 0 0 0 0 0 0 0
Wind_Speed
3 3 4 3 3 3 3 3 3 3 4 4 4 4 4 4 4 3 3 3 3 3 2 2 2 1 1 1 1 1 1 2 2 1 1 1 1 1 1 1 1 1 2
3 3 3 3 4 4 4 4 4 4 4 4 4 4 4 4 4 4 3 4 3 3 3 3 2 2 2 1 2 2 1 1 3 3 1 1 1 1 2 1 1 1 1
3 3 3 3 3 3 3 3 4 4 4 4 5 5 5 4 4 4 3 3 3 3 2 2 2 2 2 1 2 2 2 2 2 3 2 1 1 1 2 1 1 1 1
3 3 3 3 2 2 3 3 4 4 4 4 4 4 4 4 4 4 4 4 3 3 3 3 2 2 1 1 2 2 2 3 3 4 3 2 1 1 2 1 1 1 0
3 3 2 2 2 3 3 3 3 4 4 4 4 5 5 4 4 4 3 4 3 3 4 4 4 5 4 3 2 2 3 2 3 3 3 2 1 1 1 1 1 1 1
3 2 2 2 3 3 3 3 4 4 4 4 5 5 6 5 7 7 5 4 4 4 4 4 5 6 6 7 6 4 3 3 4 3 2 3 2 1 1 1 2 1 1
3 2 2 3 3 2 2 3 4 3 4 4 4 5 5 6 9 8 8 5 5 4 4 4 5 6 6 5 6 7 6 5 4 4 4 3 3 3 3 2 1 1 2
3 3 3 3 3 3 3 3 3 3 3 3 3 4 4 6 9 9 9 6 5 5 5 5 5 5 6 5 5 5 5 4 3 3 3 3 3 3 3 3 2 1 1
3 3 3 3 3 3 2 2 2 2 3 3 2 3 4 6 8 8 7 5 5 5 5 5 5 5 8 7 6 6 5 4 5 4 2 2 3 3 4 3 2 2 1
3 3 2 2 3 2 2 1 2 2 2 2 3 3 3 4 7 8 7 4 4 4 4 5 6 6 7 7 5 5 4 3 3 4 3 2 1 1 2 3 3 2 1
3 3 2 2 2 2 1 1 1 2 2 2 3 3 3 4 6 8 7 3 3 3 3 3 3 6 6 6 4 3 1 1 2 2 2 2 2 1 1 1 3 3 3
3 3 2 1 1 2 2 2 2 2 2 2 3 3 3 4 4 5 7 6 4 3 2 2 3 5 5 5 3 2 2 2 2 2 2 2 1 1 2 2 2 3 3
3 2 2 2 2 2 2 2 2 2 2 1 1 1 2 3 4 6 7 7 6 3 1 3 4 5 5 3 3 4 2 2 1 1 1 1 2 2 1 1 2 1 2
3 2 2 2 2 2 2 1 1 1 1 1 1 1 1 2 3 3 4 4 5 4 3 4 5 5 4 3 3 3 1 0 0 1 1 2 1 1 1 1 1 1 2
3 2 2 1 1 2 2 1 1 1 2 2 2 2 1 1 3 2 1 2 2 2 2 3 3 3 3 3 3 3 2 2 1 1 1 1 2 2 2 1 0 0 0
3 2 1 1 1 1 1 1 3 1 1 1 3 3 2 3 3 2 3 4 4 3 2 2 2 2 2 2 2 2 2 2 1 1 1 1 1 1 2 2 1 1 2
3 3 2 2 2 2 2 1 1 3 4 3 3 3 3 3 3 3 4 5 4 2 1 1 2 2 2 2 2 2 2 2 1 1 1 1 1 1 1 2 2 2 2
3 3 3 3 3 3 3 3 3 2 2 3 4 5 5 5 5 4 3 3 3 2 1 1 2 2 2 2 2 2 2 1 1 1 1 2 2 1 2 2 2 2 3
3 2 2 2 2 3 3 3 3 3 3 3 3 3 5 4 5 5 2 1 2 3 3 2 3 3 3 3 2 2 2 1 2 1 2 2 2 1 2 3 3 4 3
2 4 3 2 2 2 2 3 3 3 3 3 4 4 2 1 2 3 2 2 3 4 4 4 4 4 3 3 2 2 2 2 2 2 2 2 2 2 3 4 3 3 3
2 3 3 2 2 2 3 3 4 4 4 4 5 5 6 4 4 4 4 4 4 5 5 4 4 3 3 2 2 2 3 2 2 2 2 3 3 3 3 3 3 4 4
3 3 3 3 3 3 3 3 3 4 5 5 5 4 7 5 4 4 5 5 5 5 5 4 4 3 3 3 3 3 3 3 3 3 3 3 3 3 3 3 3 3 4
3 4 3 4 4 4 4 3 3 4 4 5 5 4 4 5 5 5 6 6 5 5 4 4 4 4 4 3 3 4 4 5 5 4 4 4 3 3 3 4 5 5 5
4 4 4 4 4 4 4 4 4 5 5 5 4 5 5 5 5 6 6 5 5 5 4 4 5 6 7 5 3 4 4 5 4 4 5 4 4 4 4 4 5 6 6
4 4 4 4 4 4 5 5 5 5 5 5 5 4 5 5 5 6 5 5 5 5 6 5 4 5 7 8 6 5 6 7 6 4 4 4 4 5 5 6 6 6 6
4 5 5 4 4 5 5 5 5 5 5 5 5 5 5 5 5 5 5 4 5 5 5 5 6 7 8 7 7 7 7 7 7 6 4 3 4 5 5 5 7 7 7
Wind_Direction
71 72 68 55 55 56 48 31 23 18 23 28 24 26 22 16 11 22 21 24 30 28 28 37 24 44 79 87 99 112 112 128 137 131 78 104 122 150 122 125 147 162 181
79 73 67 58 53 48 36 21 23 24 24 28 28 27 24 21 15 21 23 27 35 33 27 33 27 50 53 66 87 96 103 115 132 139 116 113 132 148 123 125 150 167 162
96 88 75 61 54 45 31 25 30 32 28 28 31 28 22 19 17 15 21 31 37 31 29 38 40 59 50 54 76 89 89 90 104 128 126 118 95 113 101 76 81 56 175
95 89 79 64 57 45 33 33 34 35 35 35 35 32 25 21 18 15 24 34 33 28 28 42 47 63 81 85 89 100 103 94 102 113 115 102 77 76 93 89 46 26 346
107 98 91 67 60 48 39 37 38 41 44 41 41 33 23 23 18 19 26 39 38 32 31 39 44 48 60 71 96 114 121 116 115 114 116 102 89 86 97 111 108 50 355
119 116 108 85 69 58 47 45 48 45 42 41 39 37 28 21 19 32 43 47 44 46 39 32 37 42 43 53 63 76 107 134 138 128 132 134 140 134 123 120 111 87 326
111 106 100 96 76 59 57 54 52 47 48 43 36 37 29 16 28 36 42 55 51 49 51 45 43 39 38 47 49 52 56 74 115 137 141 158 162 177 154 133 142 161 222
105 95 97 96 84 62 55 58 52 48 48 44 37 35 32 18 29 40 46 52 51 47 49 55 57 38 36 50 62 56 50 52 72 112 147 169 175 176 169 165 172 169 296
104 92 91 97 98 79 64 58 51 57 45 35 35 38 34 12 22 39 50 49 50 41 41 45 52 47 36 52 67 64 54 37 51 73 114 152 174 178 163 121 105 89 24
121 107 94 95 100 105 93 64 50 60 51 40 36 30 32 18 17 34 49 57 52 38 31 29 37 42 38 47 64 69 58 26 32 38 42 30 52 168 179 165 158 145 161
128 115 108 96 107 113 88 58 58 60 55 40 30 15 19 19 18 29 42 62 63 47 31 15 8 25 34 40 57 75 81 29 26 39 29 11 10 9 334 192 178 166 173
114 105 106 104 104 95 86 66 56 66 61 40 30 12 1 3 19 25 40 52 63 67 27 355 349 5 21 24 37 33 41 43 48 40 32 6 348 311 287 266 226 215 214
110 104 95 79 65 78 90 82 56 52 65 42 44 21 345 347 356 13 30 38 47 54 359 340 345 358 7 9 357 360 27 43 40 35 344 290 269 268 294 324 319 290 279
124 115 99 88 66 52 60 76 88 78 89 91 91 39 339 340 343 350 359 9 16 16 355 344 348 358 6 344 336 345 354 323 181 245 274 286 300 321 319 308 314 336 343
142 142 130 125 116 80 59 54 128 203 198 177 183 179 169 277 284 300 341 343 338 331 345 4 8 2 360 352 348 339 340 357 356 317 313 325 332 333 314 308 291 324 309
152 166 175 168 154 147 130 10 1 307 310 220 201 192 222 235 264 311 334 336 332 343 39 15 343 336 327 317 324 329 332 324 306 306 321 307 308 306 307 314 306 270 276
177 195 198 197 194 190 190 185 269 321 324 307 274 248 238 246 271 305 329 331 331 7 43 331 308 297 291 284 277 277 284 283 281 278 272 277 281 289 295 302 306 298 284
186 202 198 203 207 208 210 211 207 219 278 299 292 264 256 259 271 286 314 352 344 357 284 275 282 279 273 271 268 268 282 302 295 271 273 277 277 276 282 284 280 274 280
189 205 207 208 210 214 220 218 220 224 236 259 284 288 259 261 279 283 257 210 268 287 284 275 268 262 261 261 260 256 251 254 251 249 268 272 272 268 275 275 276 280 276
208 218 211 211 226 233 225 220 225 229 234 241 248 250 239 194 268 276 249 231 241 257 262 263 266 261 253 255 253 246 244 256 262 257 265 272 273 264 270 279 280 278 272
211 232 236 238 243 240 232 225 224 223 228 237 245 240 207 204 231 243 246 243 236 242 247 250 253 257 254 244 231 229 231 247 248 247 258 264 269 270 270 272 276 275 275
209 225 232 238 246 249 245 233 227 230 235 240 250 256 226 221 234 240 242 245 241 237 234 232 239 241 234 231 221 218 227 240 247 246 250 256 258 263 268 274 281 283 280
214 227 239 244 241 247 251 244 236 235 240 241 241 241 227 225 233 238 244 244 240 240 236 222 228 246 248 233 218 207 213 227 231 225 231 246 255 260 263 267 275 279 279
220 228 233 241 243 242 246 252 250 243 241 242 241 236 232 229 233 239 242 243 238 238 235 226 226 235 242 242 235 227 226 228 225 226 226 234 246 257 261 265 269 270 273
227 234 232 231 236 242 245 248 249 247 243 240 238 238 238 234 236 241 241 238 235 237 239 233 230 235 239 237 235 235 234 234 236 236 233 233 246 254 261 266 271 274 274
232 236 236 237 240 241 240 242 246 246 244 243 240 236 237 239 240 240 238 235 234 237 243 240 238 239 239 239 240 239 238 240 245 246 235 238 250 260 264 268 274 274 277